This is the latest recevied weather packets stored in our database for station/object IZ1UQG-1. If no packets are shown the sender has not sent any weather packets the latest 10 day(s).
| Time | Temp. | Humidity | Pressure | Rain* | Wind** | Luminosity | Snow |
|---|---|---|---|---|---|---|---|
| 1777731541 | 26.11° C | 38% | 1019.3 hPa | 166.12 mm | - | - | - |
| 1777731241 | 26.11° C | 38% | 1019.6 hPa | 176.53 mm | - | - | - |
| 1777730941 | 25.56° C | 38% | 1019.5 hPa | 183.13 mm | - | - | - |
| 1777730641 | 25.56° C | 38% | 1019.7 hPa | 173.48 mm | - | - | - |
| 1777730341 | 25.56° C | 37% | 1019.6 hPa | 164.59 mm | - | - | - |
| 1777730041 | 25.56° C | 36% | 1019.8 hPa | 176.02 mm | - | - | - |
| 1777729741 | 25.56° C | 37% | 1019.8 hPa | 170.69 mm | - | - | - |
| 1777729441 | 25.56° C | 37% | 1019.8 hPa | 173.48 mm | - | - | - |
| 1777729141 | 25.56° C | 36% | 1020 hPa | 160.02 mm | - | - | - |
| 1777728841 | 25.56° C | 36% | 1020 hPa | 171.45 mm | - | - | - |
| 1777728541 | 25.56° C | 36% | 1020.2 hPa | 168.15 mm | - | - | - |
| 1777728241 | 25° C | 36% | 1020.2 hPa | 168.66 mm | - | - | - |
| 1777727941 | 25° C | 36% | 1020.3 hPa | 184.15 mm | - | - | - |
| 1777727641 | 25° C | 36% | 1020.4 hPa | 183.64 mm | - | - | - |
| 1777727341 | 25.56° C | 36% | 1020.5 hPa | 175.01 mm | - | - | - |
| 1777727041 | 25° C | 36% | 1020.5 hPa | 174.5 mm | - | - | - |
| 1777726741 | 25° C | 37% | 1020.5 hPa | 170.69 mm | - | - | - |
| 1777726441 | 25° C | 37% | 1020.7 hPa | 167.64 mm | - | - | - |
| 1777726141 | 25° C | 37% | 1020.7 hPa | 157.99 mm | - | - | - |
| 1777725841 | 25° C | 38% | 1020.9 hPa | 153.67 mm | - | - | - |
| 1777725541 | 25° C | 37% | 1020.8 hPa | 157.23 mm | - | - | - |
| 1777725241 | 25° C | 37% | 1020.8 hPa | 149.61 mm | - | - | - |
| 1777724941 | 25° C | 37% | 1021.1 hPa | 147.07 mm | - | - | - |
| 1777724641 | 25° C | 37% | 1021.2 hPa | 118.62 mm | - | - | - |
| 1777724341 | 25° C | 37% | 1021.1 hPa | 111.76 mm | - | - | - |
* Rain latest hour (hover to see other rain measurements)
** Current wind speed in m/s (hover to see current wind gust speed)